{"data":{"norad_id":65794,"intl_designator":"2025-218D","name":"STARLINK-35378","alt_names":[],"object_type":"PAYLOAD","status":"ACTIVE","operator":null,"country":"US","launch_date":"2025-09-26","launch_site_code":"AFWTR","launch_vehicle":null,"mission":null,"orbit_class":"UNKNOWN","rcs_meters":null,"size_class":null,"mass_kg":null,"dimensions":null,"purposes":["comms"],"wikipedia_slug":null,"has_3d_model":false,"image_url":null,"decayed_at":null,"tle_current":{"epoch":"2026-09-20T14:32:53.129472Z","epoch_age_seconds":97031,"freshness":"FRESH","line1":"1 65794U 25218D   26263.60617048  .00009677  00000+0  30180-3 0  9993","line2":"2 65794  97.2852 121.0306 0001155  92.7458 267.3917 15.33434116 54359","mean_motion":15.33434116,"eccentricity":0.0001155,"inclination_deg":97.2852,"raan_deg":121.0306,"arg_perigee_deg":92.7458,"mean_anomaly_deg":267.3917,"bstar":0.0003018,"rev_number":5435,"period_min":93.906871183763,"perigee_km":464.7851089957,"apogee_km":466.36600659655,"semimajor_km":6843.7125577961,"source":"CELESTRAK","updated_at":"2026-09-21T09:00:35.713870Z"}}}